| time (UTC) | temp F | wind direction | speed MPH | gust MPH | rain 1hr in | rain 24hr in | rain mn in | humidity % | barometer mb |
| 20260902073030 | 57 | 306 | 4.0 | 10.0 | 0.00 | 0.00 | 0.00 | 74 | 1012.7 |
| 20260902071532 | 57 | 316 | 5.0 | 13.0 | 0.00 | 0.00 | 0.00 | 73 | 1012.9 |
| 20260902070029 | 58 | 325 | 5.0 | 13.0 | 0.00 | 0.00 | 0.00 | 73 | 1013.1 |
| 20260902064532 | 58 | 307 | 5.0 | 13.0 | 0.00 | 0.00 | 0.00 | 72 | 1013.4 |
| 20260902063029 | 59 | 310 | 4.0 | 8.0 | 0.00 | 0.00 | 0.00 | 72 | 1013.6 |
| 20260902061531 | 59 | 312 | 5.0 | 19.0 | 0.00 | 0.00 | 0.00 | 71 | 1013.6 |
| 20260902060031 | 59 | 291 | 3.0 | 12.0 | 0.00 | 0.00 | 0.00 | 71 | 1013.6 |
| 20260902054529 | 59 | 195 | 0.0 | 7.0 | 0.00 | 0.00 | 0.00 | 70 | 1013.6 |
| 20260902053031 | 60 | 320 | 2.0 | 7.0 | 0.00 | 0.00 | 0.00 | 69 | 1013.4 |
| 20260902051529 | 59 | 263 | 4.0 | 10.0 | 0.00 | 0.00 | 0.00 | 70 | 1013.4 |
| 20260902050145 | 59 | 253 | 3.0 | 14.0 | 0.00 | 0.00 | 0.00 | 71 | 1013.3 |
| 20260902044530 | 59 | 281 | 2.0 | 7.0 | 0.00 | 0.00 | 0.00 | 70 | 1013.2 |
| 20260902043147 | 59 | 208 | 2.0 | 7.0 | 0.00 | 0.00 | 0.00 | 70 | 1013.1 |
| 20260902041605 | 59 | 255 | 4.0 | 11.0 | 0.00 | 0.00 | 0.00 | 69 | 1013.0 |
| 20260902040029 | 60 | 262 | 4.0 | 15.0 | 0.00 | 0.00 | 0.00 | 69 | 1012.8 |
| 20260902034607 | 60 | 293 | 5.0 | 14.0 | 0.00 | 0.00 | 0.00 | 69 | 1012.5 |
| 20260902033029 | 60 | 273 | 4.0 | 9.0 | 0.00 | 0.00 | 0.00 | 68 | 1012.5 |
| 20260902031531 | 60 | 296 | 4.0 | 14.0 | 0.00 | 0.00 | 0.00 | 67 | 1012.4 |
| 20260902030106 | 60 | 277 | 7.0 | 21.0 | 0.00 | 0.00 | 0.00 | 67 | 1012.4 |
| 20260902024609 | 60 | 259 | 5.0 | 14.0 | 0.00 | 0.00 | 0.00 | 68 | 1012.7 |
| 20260902021532 | 61 | 279 | 4.0 | 13.0 | 0.00 | 0.00 | 0.00 | 64 | 1012.5 |
| 20260902013032 | 64 | 277 | 7.0 | 15.0 | 0.00 | 0.00 | 0.00 | 60 | 1012.1 |
| 20260902011530 | 65 | 282 | 9.0 | 24.0 | 0.00 | 0.00 | 0.00 | 59 | 1011.9 |
| 20260902010030 | 66 | 292 | 8.0 | 18.0 | 0.00 | 0.00 | 0.00 | 59 | 1011.9 |
| 20260902003029 | 66 | 295 | 8.0 | 21.0 | 0.00 | 0.00 | 0.00 | 59 | 1011.5 |
| 20260902000108 | 67 | 276 | 7.0 | 17.0 | 0.00 | 0.00 | 0.00 | 60 | 1011.4 |
| 20260901234602 | 66 | 288 | 7.0 | 17.0 | 0.00 | 0.00 | 0.00 | 59 | 1011.4 |
| 20260901233031 | 67 | 317 | 7.0 | 20.0 | 0.00 | 0.00 | 0.00 | 57 | 1011.3 |
| 20260901230030 | 69 | 314 | 10.0 | 21.0 | 0.00 | 0.00 | 0.00 | 56 | 1011.1 |
| 20260901223107 | 68 | 303 | 11.0 | 26.0 | 0.00 | 0.00 | 0.00 | 56 | 1010.9 |
| 20260901221530 | 70 | 286 | 11.0 | 25.0 | 0.00 | 0.00 | 0.00 | 56 | 1010.8 |
| 20260901220030 | 69 | 300 | 9.0 | 21.0 | 0.00 | 0.00 | 0.00 | 56 | 1010.6 |
| 20260901214532 | 69 | 305 | 10.0 | 24.0 | 0.00 | 0.00 | 0.00 | 57 | 1010.4 |
| 20260901213105 | 69 | 315 | 9.0 | 19.0 | 0.00 | 0.00 | 0.00 | 57 | 1010.6 |
| 20260901211531 | 68 | 301 | 10.0 | 24.0 | 0.00 | 0.00 | 0.00 | 57 | 1010.7 |
| 20260901210031 | 69 | 291 | 12.0 | 22.0 | 0.00 | 0.00 | 0.00 | 56 | 1010.8 |
| 20260901203031 | 69 | 294 | 9.0 | 22.0 | 0.00 | 0.00 | 0.00 | 54 | 1011.1 |
| 20260901201643 | 69 | 300 | 9.0 | 22.0 | 0.00 | 0.00 | 0.00 | 53 | 1011.0 |
| 20260901194534 | 69 | 295 | 8.0 | 20.0 | 0.00 | 0.00 | 0.00 | 53 | 1011.4 |
| 20260901193028 | 70 | 292 | 8.0 | 19.0 | 0.00 | 0.00 | 0.00 | 52 | 1011.7 |
| 20260901184607 | 72 | 300 | 6.0 | 17.0 | 0.00 | 0.00 | 0.00 | 54 | 1012.0 |
| 20260901183107 | 71 | 235 | 3.0 | 11.0 | 0.00 | 0.00 | 0.00 | 56 | 1012.1 |
| 20260901180030 | 69 | 251 | 2.0 | 6.0 | 0.00 | 0.00 | 0.00 | 62 | 1012.4 |
| 20260901174606 | 66 | 245 | 3.0 | 7.0 | 0.00 | 0.00 | 0.00 | 67 | 1012.5 |
| 20260901173029 | 65 | 233 | 1.0 | 5.0 | 0.00 | 0.00 | 0.00 | 70 | 1012.6 |
| 20260901171604 | 63 | 248 | 1.0 | 5.0 | 0.00 | 0.00 | 0.00 | 74 | 1012.6 |
| 20260901170032 | 61 | 289 | 1.0 | 3.0 | 0.00 | 0.00 | 0.00 | 79 | 1012.6 |
| 20260901164530 | 60 | 174 | 0.0 | 2.0 | 0.00 | 0.00 | 0.00 | 83 | 1012.7 |
| 20260901163032 | 59 | 85 | 1.0 | 4.0 | 0.00 | 0.00 | 0.00 | 88 | 1012.6 |
| 20260901161528 | 55 | 155 | 0.0 | 2.0 | 0.00 | 0.00 | 0.00 | 92 | 1012.6 |
| 20260901160032 | 53 | 218 | 0.0 | 2.0 | 0.00 | 0.00 | 0.00 | 93 | 1012.5 |
| 20260901154530 | 52 | 203 | 0.0 | 2.0 | 0.00 | 0.00 | 0.00 | 93 | 1012.4 |
| 20260901153030 | 50 | 180 | 0.0 | 0.0 | 0.00 | 0.00 | 0.00 | 93 | 1012.4 |
| 20260901151531 | 49 | 180 | 0.0 | 2.0 | 0.00 | 0.00 | 0.00 | 93 | 1012.4 |
| 20260901150033 | 48 | 169 | 1.0 | 3.0 | 0.00 | 0.00 | 0.00 | 92 | 1012.2 |
| 20260901144606 | 48 | 157 | 1.0 | 2.0 | 0.00 | 0.00 | 0.00 | 92 | 1012.2 |
| 20260901143106 | 47 | 157 | 1.0 | 2.0 | 0.00 | 0.00 | 0.00 | 92 | 1012.1 |
| 20260901140033 | 46 | 135 | 0.0 | 3.0 | 0.00 | 0.00 | 0.00 | 91 | 1011.9 |
| 20260901134530 | 46 | 154 | 0.0 | 3.0 | 0.00 | 0.00 | 0.00 | 91 | 1011.7 |
| 20260901133029 | 46 | 157 | 0.0 | 5.0 | 0.00 | 0.00 | 0.00 | 91 | 1011.5 |
| 20260901131531 | 46 | 154 | 2.0 | 5.0 | 0.00 | 0.00 | 0.00 | 91 | 1011.5 |
| 20260901130030 | 46 | 150 | 0.0 | 4.0 | 0.00 | 0.00 | 0.00 | 90 | 1011.4 |
| 20260901124530 | 46 | 166 | 2.0 | 6.0 | 0.00 | 0.00 | 0.00 | 89 | 1011.3 |
| 20260901123030 | 46 | 141 | 1.0 | 4.0 | 0.00 | 0.00 | 0.00 | 89 | 1011.3 |
| 20260901121534 | 47 | 157 | 0.0 | 0.0 | 0.00 | 0.00 | 0.00 | 88 | 1011.3 |
| 20260901120030 | 47 | 158 | 1.0 | 5.0 | 0.00 | 0.00 | 0.00 | 88 | 1011.2 |
| 20260901114532 | 47 | 223 | 1.0 | 4.0 | 0.00 | 0.00 | 0.00 | 88 | 1011.3 |
| 20260901113108 | 47 | 168 | 2.0 | 5.0 | 0.00 | 0.00 | 0.00 | 88 | 1011.3 |
| 20260901111531 | 47 | 150 | 0.0 | 3.0 | 0.00 | 0.00 | 0.00 | 88 | 1011.2 |
| 20260901110042 | 47 | 145 | 0.0 | 4.0 | 0.00 | 0.00 | 0.00 | 88 | 1011.3 |
| 20260901104609 | 47 | 152 | 1.0 | 3.0 | 0.00 | 0.00 | 0.00 | 87 | 1011.3 |
| 20260901103031 | 47 | 151 | 1.0 | 3.0 | 0.00 | 0.00 | 0.00 | 86 | 1011.3 |
| 20260901101530 | 48 | 97 | 1.0 | 4.0 | 0.00 | 0.00 | 0.00 | 86 | 1011.3 |
| 20260901100104 | 49 | 150 | 1.0 | 4.0 | 0.00 | 0.00 | 0.00 | 86 | 1011.3 |
| 20260901094608 | 49 | 146 | 2.0 | 5.0 | 0.00 | 0.00 | 0.00 | 86 | 1011.3 |
| 20260901093029 | 48 | 165 | 2.0 | 5.0 | 0.00 | 0.00 | 0.00 | 86 | 1011.3 |
| 20260901091530 | 48 | 153 | 2.0 | 5.0 | 0.00 | 0.00 | 0.00 | 85 | 1011.3 |
| 20260901090032 | 49 | 134 | 0.0 | 3.0 | 0.00 | 0.00 | 0.00 | 85 | 1011.2 |
| 20260901084531 | 49 | 185 | 1.0 | 4.0 | 0.00 | 0.00 | 0.00 | 85 | 1011.2 |
| 20260901083030 | 49 | 199 | 2.0 | 5.0 | 0.00 | 0.00 | 0.00 | 85 | 1011.4 |
| 20260901080030 | 50 | 128 | 1.0 | 5.0 | 0.00 | 0.00 | 0.00 | 84 | 1011.3 |
| 20260901074604 | 50 | 196 | 1.0 | 4.0 | 0.00 | 0.00 | 0.00 | 83 | 1011.2 |